Location: Northcutt
(34.7304°N, 84.4305°W)
Time: 08:07:48
(UTC+00:00)

S-56A Canister/Altair - Pass Details

Date: 04 October 2022
Orbit: 638 x 2494 km, 38.9° (Epoch: 08 December)

Event Time Altitude Azimuth Distance (km) Brightness Sun altitude
Rises 12:57:11 0° 285° (WNW) 3,881 10.5 15.8°
Reaches altitude 10° 13:00:49 10° 271° (W) 2,628 9.8 16.5°
Maximum altitude 13:05:16 22° 223° (SW) 1,646 9.1 17.3°
Drops below altitude 10° 13:08:57 10° 172° (S) 2,123 10.3 18.1°
Sets 13:11:33 0° 156° (SSE) 2,950 11.2 18.6°
